Vorticity
11 10 11 9 4 2 5 14 9 8 9 8 8 7 7 6 7 6 8 7 6 3 5 8 9 6 5 5 9 -5 -5 -6 -13 -9 1 6 15 10 4 4 15 12 11 6 8 9 5
11 10 10 12 14 16 -2 11 6 13 8 10 9 9 7 7 7 6 7 8 6 5 4 8 9 9 9 9 11 8 7 8 5 7 5 4 2 -7 2 6 13 -4 18 20 11 7 6
11 13 11 12 11 13 23 -13 11 5 11 8 11 9 8 7 7 7 6 8 8 5 4 6 7 14 17 17 8 6 9 9 11 11 15 14 11 8 14 24 24 6 13 3 3 23 8
8 9 9 9 12 14 12 19 -9 9 16 8 12 13 10 8 7 7 7 8 9 7 5 3 4 1 3 5 8 8 8 8 9 9 11 13 16 16 9 2 -6 5 25 16 32 16 7
10 12 14 12 12 12 16 15 9 -21 -7 14 6 11 16 10 9 6 7 8 9 9 5 4 4 6 11 -0 5 5 9 13 10 8 7 10 5 9 7 1 4 19 -12 -9 13 36 9
8 8 9 12 13 13 12 18 19 21 4 2 6 13 3 14 11 7 7 7 8 8 7 5 6 10 1 -1 9 8 12 7 12 9 9 9 10 4 1 3 -14 14 19 11 12 23 18
10 11 10 13 12 16 14 14 20 19 16 4 16 7 11 6 20 9 7 8 9 8 8 7 -30 23 5 9 7 -6 -4 9 11 10 6 12 5 -2 -2 9 9 7 -20 -16 2 -4 20
11 10 12 13 14 16 14 13 17 23 12 -2 4 9 6 12 -0 15 8 5 8 -3 10 10 13 10 5 2 6 6 6 12 15 8 10 6 4 9 2 -2 -0 1 -1 8 22 -1 -9
9 13 17 19 17 20 21 16 21 17 35 33 28 16 8 3 11 14 9 8 9 9 6 8 8 8 11 7 6 7 8 8 6 17 9 10 -29 48 24 11 9 10 12 11 -15 -10 5
9 11 14 17 20 32 19 18 13 35 34 12 40 14 6 8 5 2 7 9 10 8 8 23 27 39 30 13 14 22 27 10 11 16 12 27 19 10 -17 15 26 15 3 11 19 18 3
10 20 11 -3 17 11 14 8 19 10 32 23 -8 22 11 4 -0 6 7 11 8 10 7 24 17 10 21 23 -2 1 19 12 8 8 -1 -17 -9 27 23 -5 -1 -4 22 6 12 7 3
14 11 4 9 34 32 15 -18 28 25 -6 49 -46 46 18 4 13 -21 7 12 9 -0 19 9 14 15 4 7 0 5 6 16 12 18 1 15 -4 -8 4 8 30 -18 12 22 -2 23 40
14 11 9 13 53 24 8 15 18 17 11 17 57 45 -46 26 10 21 6 10 -13 -3 14 26 13 -5 6 11 5 1 5 8 -6 22 21 20 9 2 10 12 18 29 -3 12 28 11 16
2 13 7 17 31 13 3 12 27 31 22 21 21 21 -3 2 -1 7 11 14 -3 32 -9 6 15 9 2 4 8 8 0 8 13 1 10 13 34 38 5 -3 -11 8 20 -32 7 6 12
9 8 12 8 26 23 -9 -3 37 1 23 21 45 -13 -19 34 6 15 10 -12 6 6 33 8 -4 8 8 13 -8 15 18 4 7 28 -19 10 17 8 15 47 8 35 23 9 -34 -33 24
9 9 9 14 21 38 -16 1 9 33 35 30 19 65 -72 8 1 15 10 -30 -10 -2 4 16 5 16 13 12 -1 4 6 22 47 26 12 8 -2 -8 12 8 17 8 24 24 12 16 8
10 11 10 9 24 21 -5 -26 10 43 8 11 26 20 35 7 13 15 -5 -13 -6 -10 9 2 6 1 4 5 1 9 -2 -13 14 9 50 6 -0 -0 19 8 4 18 11 -14 15 -43 1
9 11 13 10 19 24 -7 -5 1 24 3 30 17 36 39 22 3 11 5 7 -8 27 -13 1 -3 8 -2 27 16 -1 1 -0 -8 17 17 9 6 23 -1 -3 36 17 24 8 -29 43 22
10 13 13 11 14 35 10 1 -3 4 65 16 8 20 46 6 -21 14 1 4 12 11 15 22 2 25 30 12 -5 21 22 21 31 2 7 19 19 17 46 64 26 -1 4 15 -6 -24 25
13 15 12 11 10 32 17 1 2 2 50 7 30 40 17 24 4 2 -10 6 3 11 23 7 -7 11 2 12 8 -15 5 16 14 14 18 4 14 -28 -32 -45 -18 50 20 29 22 -8 -11
13 14 12 11 18 29 11 1 14 28 54 25 -0 55 3 33 -3 19 20 -5 3 0 11 33 19 35 11 8 16 4 3 1 -8 5 -4 24 -1 2 -4 3 16 5 26 28 -3 1 3
16 15 9 10 14 29 13 3 25 43 25 26 1 60 2 38 -5 1 0 -1 -14 11 -5 14 2 0 55 6 -9 -1 31 33 13 13 6 3 -3 30 22 21 19 1 11 10 23 14 12
17 17 10 6 12 27 19 6 12 35 17 -11 32 33 24 55 -3 4 4 5 9 2 6 -2 12 28 17 5 28 9 -12 -9 -7 7 18 25 19 17 9 73 59 48 50 29 16 18 -2
19 13 9 7 17 25 16 17 18 15 20 0 46 19 9 -11 28 -5 -0 1 -5 11 6 -3 -3 5 9 14 21 11 3 8 6 -2 1 -4 26 29 5 4 7 14 24 39 21 10 23
17 9 8 7 16 24 18 11 12 -0 36 -2 -28 -0 0 -1 23 13 7 -10 20 5 5 5 4 9 19 17 9 21 27 43 20 30 20 21 12 15 5 22 12 -5 30 39 29 6 38
9 16 11 7 15 23 16 29 15 6 29 -12 15 29 21 10 7 14 23 12 0 15 10 11 10 10 -1 16 4 16 2 2 18 12 12 11 15 1 3 14 11 17 19 14 3 -2 13
9 11 24 9 10 23 16 16 12 20 15 2 37 -4 3 -18 -16 11 -3 11 1 15 6 8 11 29 46 30 5 8 10 6 4 7 36 -1 13 13 3 8 16 9 21 23 -20 7 13
11 8 15 9 7 22 25 20 4 19 5 23 30 29 3 2 -3 8 0 8 5 11 7 2 30 35 24 18 -11 22 12 18 5 -1 14 13 6 11 19 5 19 6 21 -25 18 24 20
14 12 20 15 11 19 26 16 10 17 20 -6 -3 13 12 8 1 6 4 16 -2 13 15 1 16 24 20 24 -10 3 6 16 -2 0 11 10 -16 7 -5 25 11 19 5 12 -0 11 38
Height
3066 3063 3061 3059 3058 3056 3056 3055 3054 3053 3052 3054 3054 3054 3056 3056 3057 3057 3057 3058 3059 3060 3060 3060 3063 3063 3063 3064 3064 3067 3067 3070 3071 3072 3074 3074 3076 3077 3078 3080 3082 3079 3081 3083 3085 3088 3090
3061 3057 3054 3052 3049 3049 3050 3048 3048 3046 3046 3046 3048 3048 3050 3051 3052 3052 3052 3053 3055 3056 3056 3057 3059 3060 3060 3061 3061 3062 3063 3064 3066 3069 3070 3071 3073 3073 3072 3073 3076 3075 3075 3075 3078 3081 3083
3054 3051 3048 3044 3041 3040 3041 3041 3039 3039 3039 3039 3041 3042 3043 3045 3046 3047 3048 3048 3050 3051 3053 3054 3055 3056 3056 3059 3057 3057 3059 3059 3061 3063 3066 3068 3068 3068 3068 3069 3071 3069 3069 3070 3072 3075 3077
3049 3045 3041 3037 3034 3031 3030 3030 3032 3031 3031 3032 3033 3035 3037 3038 3040 3042 3043 3044 3045 3046 3048 3049 3050 3052 3053 3052 3053 3054 3056 3056 3057 3058 3061 3061 3062 3063 3063 3065 3066 3067 3065 3064 3067 3072 3073
3043 3038 3034 3029 3025 3022 3020 3019 3020 3021 3023 3023 3026 3027 3029 3031 3034 3036 3038 3039 3040 3041 3042 3043 3047 3048 3049 3047 3048 3048 3051 3052 3053 3054 3056 3057 3057 3058 3060 3062 3064 3062 3058 3059 3062 3066 3069
3036 3031 3026 3021 3017 3013 3010 3009 3008 3009 3013 3015 3018 3021 3023 3024 3027 3030 3032 3033 3034 3035 3036 3038 3040 3047 3044 3043 3042 3042 3046 3047 3048 3050 3052 3053 3053 3053 3055 3059 3054 3058 3059 3058 3059 3062 3062
3027 3022 3018 3012 3007 3004 2999 2997 2996 2999 3003 3006 3008 3012 3017 3019 3020 3023 3026 3028 3032 3032 3030 3035 3034 3037 3038 3039 3039 3039 3041 3043 3044 3045 3046 3047 3047 3043 3049 3053 3055 3056 3057 3055 3055 3059 3057
3019 3012 3006 3002 2997 2993 2988 2986 2984 2985 2990 2995 2998 3002 3008 3012 3015 3015 3018 3021 3026 3025 3026 3027 3028 3030 3031 3032 3034 3035 3037 3038 3038 3038 3041 3043 3036 3042 3045 3048 3050 3050 3051 3052 3052 3056 3055
3007 3000 2995 2990 2986 2981 2977 2974 2973 2973 2978 2984 2986 2992 2999 3004 3008 3008 3013 3019 3020 3020 3021 3022 3022 3022 3027 3026 3024 3029 3032 3032 3032 3034 3035 3036 3035 3038 3040 3042 3043 3043 3045 3049 3050 3051 3049
2999 2992 2984 2979 2973 2970 2966 2965 2963 2962 2965 2973 2978 2983 2989 2997 3001 3004 3008 3014 3016 3018 3020 3015 3013 3012 3017 3017 3017 3022 3024 3028 3027 3029 3033 3031 3031 3033 3034 3032 3039 3037 3042 3044 3046 3048 3042
2995 2988 2980 2972 2968 2963 2960 2959 2956 2955 2955 2959 2963 2973 2980 2986 2989 2997 3009 3011 3012 3017 3020 3010 3007 3009 3010 3014 3016 3017 3020 3021 3022 3025 3029 3022 3023 3026 3026 3028 3034 3033 3038 3040 3042 3041 3039
2990 2983 2975 2967 2960 2955 2954 2951 2948 2947 2948 2949 2952 2958 2971 2976 2984 2994 3000 3004 3010 3017 3009 3003 3003 3004 3007 3009 3012 3013 3016 3018 3018 3021 3019 3019 3021 3022 3022 3026 3028 3032 3035 3036 3037 3037 3027
2985 2978 2969 2962 2954 2951 2949 2946 2944 2941 2941 2941 2943 2948 2957 2966 2977 2986 2992 2999 3008 3006 3002 3000 2999 3002 3004 3006 3009 3010 3011 3012 3014 3016 3013 3014 3012 3014 3018 3021 3023 3026 3033 3032 3029 3027 3016
2980 2974 2965 2958 2951 2947 2943 2940 2937 2934 2934 2935 2937 2940 2949 2958 2969 2976 2986 2994 2996 2993 2994 2995 2997 3000 3002 3004 3006 3007 3008 3006 3007 3008 3009 3008 3007 3006 3009 3011 3015 3017 3022 3024 3021 3016 3013
2977 2968 2960 2954 2947 2943 2939 2933 2931 2930 2928 2929 2932 2934 2943 2946 2961 2971 2980 2985 2985 2988 2991 2994 2996 2998 2999 3001 3004 3003 3001 2998 3000 3003 3007 3004 3002 3001 3004 3008 3010 3011 3012 3012 3017 3012 3010
2971 2964 2956 2950 2944 2939 2934 2930 2929 2928 2924 2925 2927 2932 2938 2945 2959 2968 2975 2977 2982 2985 2987 2990 2993 2995 2995 2996 2998 2997 2996 2994 2996 2996 2998 3000 2999 2998 3000 3002 3003 3005 3010 3011 3011 3009 3003
2966 2959 2952 2946 2940 2935 2932 2928 2926 2922 2921 2922 2924 2926 2938 2944 2955 2964 2966 2972 2978 2981 2985 2989 2991 2992 2992 2992 2992 2991 2992 2992 2990 2990 2991 2995 2997 2997 2996 2994 2995 3000 3001 3004 3005 3004 3001
2961 2954 2948 2942 2936 2933 2930 2927 2925 2921 2919 2918 2922 2932 2933 2941 2952 2958 2962 2967 2975 2978 2982 2985 2987 2988 2988 2988 2987 2988 2987 2988 2986 2986 2987 2989 2991 2989 2987 2989 2991 2992 2992 2997 2998 2996 2996
2956 2949 2943 2937 2932 2928 2927 2924 2920 2918 2917 2917 2926 2932 2932 2942 2944 2952 2960 2965 2971 2975 2979 2982 2983 2984 2984 2984 2986 2984 2985 2983 2983 2982 2982 2985 2984 2984 2980 2981 2980 2980 2983 2987 2991 2993 2989
2951 2945 2939 2933 2928 2923 2923 2921 2919 2916 2914 2920 2926 2929 2932 2940 2946 2950 2957 2963 2968 2972 2975 2978 2979 2980 2980 2979 2981 2981 2981 2982 2981 2982 2984 2982 2979 2974 2969 2968 2971 2973 2974 2978 2985 2988 2983
2947 2941 2935 2930 2925 2919 2918 2917 2917 2912 2913 2915 2923 2925 2927 2932 2943 2949 2957 2962 2966 2969 2972 2974 2975 2976 2977 2976 2977 2977 2978 2980 2980 2978 2978 2977 2971 2967 2963 2962 2964 2966 2970 2971 2972 2970 2976
2943 2937 2932 2927 2923 2918 2917 2916 2916 2912 2914 2920 2923 2924 2930 2938 2943 2950 2956 2958 2963 2966 2969 2970 2971 2971 2973 2972 2973 2975 2973 2974 2976 2975 2973 2971 2964 2961 2954 2954 2952 2958 2961 2964 2965 2969 2971
2940 2934 2930 2924 2919 2916 2915 2914 2912 2912 2914 2919 2919 2924 2933 2937 2944 2950 2951 2956 2961 2964 2966 2967 2969 2969 2969 2969 2968 2972 2971 2971 2972 2971 2968 2966 2963 2962 2950 2943 2942 2952 2942 2950 2957 2963 2968
2937 2933 2928 2923 2917 2913 2913 2914 2915 2913 2914 2916 2919 2925 2931 2937 2940 2945 2951 2955 2958 2961 2964 2965 2966 2966 2968 2966 2965 2967 2968 2968 2967 2967 2965 2963 2962 2961 2952 2947 2945 2939 2942 2947 2955 2958 2962
2935 2930 2927 2922 2916 2913 2912 2912 2914 2915 2915 2918 2921 2925 2930 2935 2941 2946 2951 2954 2955 2958 2959 2960 2962 2963 2963 2963 2963 2963 2966 2964 2962 2962 2961 2962 2961 2959 2953 2950 2949 2945 2945 2947 2952 2956 2959
2932 2928 2924 2920 2916 2913 2911 2910 2911 2913 2914 2918 2923 2927 2931 2937 2940 2944 2947 2950 2952 2954 2956 2956 2957 2958 2959 2960 2961 2958 2961 2959 2960 2958 2959 2961 2962 2964 2957 2954 2952 2952 2950 2952 2957 2960 2961
2929 2925 2920 2917 2914 2911 2911 2910 2912 2913 2914 2919 2921 2927 2932 2936 2940 2944 2947 2949 2951 2952 2952 2952 2952 2950 2950 2952 2957 2956 2956 2957 2957 2958 2956 2959 2960 2960 2960 2959 2956 2957 2957 2958 2962 2963 2960
2926 2922 2917 2913 2910 2908 2907 2907 2910 2911 2914 2918 2922 2927 2932 2935 2938 2941 2944 2945 2947 2948 2949 2949 2948 2945 2946 2949 2951 2952 2953 2954 2953 2954 2955 2956 2958 2957 2959 2958 2958 2958 2960 2962 2961 2959 2960
2923 2919 2914 2910 2908 2905 2905 2905 2908 2911 2914 2918 2922 2924 2928 2934 2936 2939 2940 2942 2944 2944 2945 2944 2944 2943 2943 2945 2948 2950 2950 2951 2952 2953 2954 2956 2956 2956 2957 2957 2957 2957 2959 2960 2960 2959 2961